Time,TemperatureF,DewpointF,PressureIn,WindDirection,WindDirectionDegrees,WindSpeedMPH,WindSpeedGustMPH,Humidity,HourlyPrecipIn,Conditions,Clouds,dailyrainin,SolarRadiationWatts/m^2,SoftwareType,DateUTC
2013-02-21 00:11:00,31.0,23.0,-100.00,WSW,255,18.0,23.0,71,0.00,,,0.00,0.000000,,2013-02-21 07:11:00,
2013-02-21 00:21:00,31.0,23.0,-100.00,WSW,255,18.0,23.0,71,0.00,,,0.00,0.000000,,2013-02-21 07:21:00,
2013-02-21 00:31:00,31.0,23.0,-100.00,WSW,255,18.0,23.0,71,0.00,,,0.00,0.000000,,2013-02-21 07:31:00,
2013-02-21 00:41:00,31.0,23.0,-100.00,WSW,255,18.0,23.0,71,0.00,,,0.00,0.000000,,2013-02-21 07:41:00,
2013-02-21 00:51:00,31.0,22.0,-100.00,West,266,13.0,22.0,70,0.00,,,0.00,0.000000,,2013-02-21 07:51:00,
2013-02-21 01:11:00,31.0,22.0,-100.00,West,266,13.0,22.0,70,0.00,,,0.00,0.000000,,2013-02-21 08:11:00,
2013-02-21 01:21:00,31.0,22.0,-100.00,West,266,13.0,22.0,70,0.00,,,0.00,0.000000,,2013-02-21 08:21:00,
2013-02-21 01:31:00,31.0,22.0,-100.00,West,266,13.0,22.0,70,0.00,,,0.00,0.000000,,2013-02-21 08:31:00,
2013-02-21 01:41:00,31.0,22.0,-100.00,West,266,13.0,22.0,70,0.00,,,0.00,0.000000,,2013-02-21 08:41:00,
2013-02-21 01:51:00,31.0,20.0,-100.00,WNW,289,9.0,23.0,64,0.00,,,0.00,0.000000,,2013-02-21 08:51:00,
2013-02-21 02:11:00,31.0,20.0,-100.00,WNW,289,9.0,23.0,64,0.00,,,0.00,0.000000,,2013-02-21 09:11:00,
2013-02-21 02:22:00,31.0,20.0,-100.00,WNW,289,9.0,23.0,64,0.00,,,0.00,0.000000,,2013-02-21 09:22:00,
2013-02-21 02:31:00,31.0,20.0,-100.00,WNW,289,9.0,23.0,64,0.00,,,0.00,0.000000,,2013-02-21 09:31:00,
2013-02-21 02:41:00,31.0,20.0,-100.00,WNW,289,9.0,23.0,64,0.00,,,0.00,0.000000,,2013-02-21 09:41:00,
2013-02-21 02:51:00,29.0,19.0,-100.00,NW,305,4.0,16.0,65,0.00,,,0.00,0.000000,,2013-02-21 09:51:00,
2013-02-21 03:11:00,29.0,19.0,-100.00,NW,305,4.0,16.0,65,0.00,,,0.00,0.000000,,2013-02-21 10:11:00,
2013-02-21 03:21:00,29.0,19.0,-100.00,NW,305,4.0,16.0,65,0.00,,,0.00,0.000000,,2013-02-21 10:21:00,
2013-02-21 03:31:00,29.0,19.0,-100.00,NW,305,4.0,16.0,65,0.00,,,0.00,0.000000,,2013-02-21 10:31:00,
2013-02-21 03:41:00,29.0,19.0,-100.00,NW,305,4.0,16.0,65,0.00,,,0.00,0.000000,,2013-02-21 10:41:00,
2013-02-21 03:51:00,29.0,19.0,-100.00,WNW,289,4.0,6.0,67,0.00,,,0.00,0.000000,,2013-02-21 10:51:00,
2013-02-21 04:11:00,29.0,19.0,-100.00,WNW,289,4.0,6.0,67,0.00,,,0.00,0.000000,,2013-02-21 11:11:00,
2013-02-21 04:21:00,29.0,19.0,-100.00,WNW,289,4.0,6.0,67,0.00,,,0.00,0.000000,,2013-02-21 11:21:00,
2013-02-21 04:31:00,29.0,19.0,-100.00,WNW,289,4.0,6.0,67,0.00,,,0.00,0.000000,,2013-02-21 11:31:00,
2013-02-21 04:41:00,29.0,19.0,-100.00,WNW,289,4.0,6.0,67,0.00,,,0.00,0.000000,,2013-02-21 11:41:00,
2013-02-21 04:51:00,29.0,17.0,-100.00,WNW,302,6.0,11.0,61,0.00,,,0.00,0.000000,,2013-02-21 11:51:00,
2013-02-21 05:11:00,29.0,17.0,-100.00,WNW,302,6.0,11.0,61,0.00,,,0.00,0.000000,,2013-02-21 12:11:00,
2013-02-21 05:21:00,29.0,17.0,-100.00,WNW,302,6.0,11.0,61,0.00,,,0.00,0.000000,,2013-02-21 12:21:00,
2013-02-21 05:32:00,29.0,17.0,-100.00,WNW,302,6.0,11.0,61,0.00,,,0.00,0.000000,,2013-02-21 12:32:00,
2013-02-21 05:42:00,29.0,17.0,-100.00,WNW,302,6.0,11.0,61,0.00,,,0.00,0.000000,,2013-02-21 12:42:00,
2013-02-21 05:51:00,28.0,16.0,-100.00,WNW,285,5.0,10.0,60,0.00,,,0.00,0.000000,,2013-02-21 12:51:00,
2013-02-21 06:12:00,28.0,16.0,-100.00,WNW,285,5.0,10.0,60,0.00,,,0.00,0.000000,,2013-02-21 13:12:00,
2013-02-21 06:22:00,28.0,16.0,-100.00,WNW,285,5.0,10.0,60,0.00,,,0.00,0.000000,,2013-02-21 13:22:00,
2013-02-21 06:32:00,28.0,16.0,-100.00,WNW,285,5.0,10.0,60,0.00,,,0.00,0.000000,,2013-02-21 13:32:00,
2013-02-21 06:41:00,28.0,16.0,-100.00,WNW,285,5.0,10.0,60,0.00,,,0.00,0.000000,,2013-02-21 13:41:00,
2013-02-21 06:51:00,27.0,16.0,-100.00,WNW,294,6.0,15.0,63,0.00,,,-99.99,0.000000,,2013-02-21 13:51:00,
2013-02-21 07:21:00,27.0,16.0,-100.00,WNW,294,6.0,15.0,63,0.00,,,-99.99,0.000000,,2013-02-21 14:21:00,
2013-02-21 07:32:00,27.0,16.0,-100.00,WNW,294,6.0,15.0,63,0.00,,,-99.99,0.000000,,2013-02-21 14:32:00,
2013-02-21 07:41:00,27.0,16.0,-100.00,WNW,294,6.0,15.0,63,0.00,,,-99.99,0.000000,,2013-02-21 14:41:00,
2013-02-21 07:51:00,27.0,17.0,-100.00,NW,314,6.0,13.0,65,0.00,,,0.00,10.000000,,2013-02-21 14:51:00,
2013-02-21 08:21:00,27.0,17.0,-100.00,NW,314,6.0,13.0,65,0.00,,,0.00,10.000000,,2013-02-21 15:21:00,
2013-02-21 08:31:00,27.0,17.0,-100.00,NW,314,6.0,13.0,65,0.00,,,0.00,10.000000,,2013-02-21 15:31:00,
2013-02-21 08:42:00,27.0,17.0,-100.00,NW,314,6.0,13.0,65,0.00,,,0.00,10.000000,,2013-02-21 15:42:00,
2013-02-21 08:51:00,28.0,16.0,-100.00,West,281,7.0,11.0,61,0.00,,,0.00,81.000000,,2013-02-21 15:51:00,
2013-02-21 09:12:00,28.0,16.0,-100.00,West,281,7.0,11.0,61,0.00,,,0.00,81.000000,,2013-02-21 16:12:00,
2013-02-21 09:21:00,28.0,16.0,-100.00,West,281,7.0,11.0,61,0.00,,,0.00,81.000000,,2013-02-21 16:21:00,
2013-02-21 09:31:00,28.0,16.0,-100.00,West,281,7.0,11.0,61,0.00,,,0.00,81.000000,,2013-02-21 16:31:00,
2013-02-21 09:42:00,28.0,16.0,-100.00,West,281,7.0,11.0,61,0.00,,,0.00,81.000000,,2013-02-21 16:42:00,
2013-02-21 09:51:00,30.0,16.0,-100.00,West,279,7.0,11.0,56,0.00,,,0.00,207.000000,,2013-02-21 16:51:00,
2013-02-21 10:21:00,30.0,16.0,-100.00,West,279,7.0,11.0,56,0.00,,,0.00,207.000000,,2013-02-21 17:21:00,
2013-02-21 10:32:00,30.0,16.0,-100.00,West,279,7.0,11.0,56,0.00,,,0.00,207.000000,,2013-02-21 17:32:00,
2013-02-21 10:42:00,30.0,16.0,-100.00,West,279,7.0,11.0,56,0.00,,,0.00,207.000000,,2013-02-21 17:42:00,
2013-02-21 10:51:00,32.0,15.0,-100.00,WNW,285,6.0,13.0,50,0.00,,,0.00,357.000000,,2013-02-21 17:51:00,
2013-02-21 11:11:00,32.0,15.0,-100.00,WNW,285,6.0,13.0,50,0.00,,,0.00,357.000000,,2013-02-21 18:11:00,
2013-02-21 11:22:00,32.0,15.0,-100.00,WNW,285,6.0,13.0,50,0.00,,,0.00,357.000000,,2013-02-21 18:22:00,
2013-02-21 11:31:00,32.0,15.0,-100.00,WNW,285,6.0,13.0,50,0.00,,,0.00,357.000000,,2013-02-21 18:31:00,
2013-02-21 11:42:00,32.0,15.0,-100.00,WNW,285,6.0,13.0,50,0.00,,,0.00,357.000000,,2013-02-21 18:42:00,
2013-02-21 11:51:00,34.0,17.0,-100.00,West,266,8.0,17.0,49,0.00,,,0.00,515.000000,,2013-02-21 18:51:00,
2013-02-21 12:11:00,34.0,17.0,-100.00,West,266,8.0,17.0,49,0.00,,,0.00,515.000000,,2013-02-21 19:11:00,
2013-02-21 12:21:00,34.0,17.0,-100.00,West,266,8.0,17.0,49,0.00,,,0.00,515.000000,,2013-02-21 19:21:00,
2013-02-21 12:31:00,34.0,17.0,-100.00,West,266,8.0,17.0,49,0.00,,,0.00,515.000000,,2013-02-21 19:31:00,
2013-02-21 12:41:00,34.0,17.0,-100.00,West,266,8.0,17.0,49,0.00,,,0.00,515.000000,,2013-02-21 19:41:00,
2013-02-21 12:51:00,34.0,17.0,-100.00,WNW,283,11.0,22.0,49,0.00,,,0.00,648.000000,,2013-02-21 19:51:00,
2013-02-21 13:11:00,34.0,17.0,-100.00,WNW,283,11.0,22.0,49,0.00,,,0.00,648.000000,,2013-02-21 20:11:00,
2013-02-21 13:21:00,34.0,17.0,-100.00,WNW,283,11.0,22.0,49,0.00,,,0.00,648.000000,,2013-02-21 20:21:00,
2013-02-21 13:31:00,34.0,17.0,-100.00,WNW,283,11.0,22.0,49,0.00,,,0.00,648.000000,,2013-02-21 20:31:00,
2013-02-21 13:41:00,34.0,17.0,-100.00,WNW,283,11.0,22.0,49,0.00,,,0.00,648.000000,,2013-02-21 20:41:00,
2013-02-21 13:51:00,36.0,17.0,-100.00,NW,312,9.0,22.0,45,0.00,,,0.00,603.000000,,2013-02-21 20:51:00,
2013-02-21 14:11:00,36.0,17.0,-100.00,NW,312,9.0,22.0,45,0.00,,,0.00,603.000000,,2013-02-21 21:11:00,
2013-02-21 14:21:00,36.0,17.0,-100.00,NW,312,9.0,22.0,45,0.00,,,0.00,603.000000,,2013-02-21 21:21:00,
2013-02-21 14:31:00,36.0,17.0,-100.00,NW,312,9.0,22.0,45,0.00,,,0.00,603.000000,,2013-02-21 21:31:00,
2013-02-21 14:41:00,36.0,17.0,-100.00,NW,312,9.0,22.0,45,0.00,,,0.00,603.000000,,2013-02-21 21:41:00,
2013-02-21 14:51:00,36.0,17.0,-100.00,West,272,8.0,16.0,46,0.00,,,0.00,636.000000,,2013-02-21 21:51:00,
2013-02-21 15:21:00,36.0,17.0,-100.00,West,272,8.0,16.0,46,0.00,,,0.00,636.000000,,2013-02-21 22:21:00,
2013-02-21 15:31:00,36.0,17.0,-100.00,West,272,8.0,16.0,46,0.00,,,0.00,636.000000,,2013-02-21 22:31:00,
2013-02-21 15:41:00,36.0,17.0,-100.00,West,272,8.0,16.0,46,0.00,,,0.00,636.000000,,2013-02-21 22:41:00,
2013-02-21 15:51:00,34.0,16.0,-100.00,NW,310,8.0,17.0,48,0.00,,,0.00,406.000000,,2013-02-21 22:51:00,
2013-02-21 16:11:00,34.0,16.0,-100.00,NW,310,8.0,17.0,48,0.00,,,0.00,406.000000,,2013-02-21 23:11:00,
2013-02-21 16:21:00,34.0,16.0,-100.00,NW,310,8.0,17.0,48,0.00,,,0.00,406.000000,,2013-02-21 23:21:00,
2013-02-21 16:31:00,34.0,16.0,-100.00,NW,310,8.0,17.0,48,0.00,,,0.00,406.000000,,2013-02-21 23:31:00,
2013-02-21 16:41:00,34.0,16.0,-100.00,NW,310,8.0,17.0,48,0.00,,,0.00,406.000000,,2013-02-21 23:41:00,
2013-02-21 16:51:00,32.0,16.0,-100.00,NW,323,7.0,17.0,52,0.00,,,0.00,165.000000,,2013-02-21 23:51:00,
2013-02-21 17:11:00,32.0,16.0,-100.00,NW,323,7.0,17.0,52,0.00,,,0.00,165.000000,,2013-02-22 00:11:00,
2013-02-21 17:21:00,32.0,16.0,-100.00,NW,323,7.0,17.0,52,0.00,,,0.00,165.000000,,2013-02-22 00:21:00,
2013-02-21 17:31:00,32.0,16.0,-100.00,NW,323,7.0,17.0,52,0.00,,,0.00,165.000000,,2013-02-22 00:31:00,
2013-02-21 17:41:00,32.0,16.0,-100.00,NW,323,7.0,17.0,52,0.00,,,0.00,165.000000,,2013-02-22 00:41:00,
2013-02-21 17:51:00,30.0,15.0,-100.00,NNW,328,7.0,14.0,54,0.00,,,0.00,47.000000,,2013-02-22 00:51:00,
2013-02-21 18:21:00,30.0,15.0,-100.00,NNW,328,7.0,14.0,54,0.00,,,0.00,47.000000,,2013-02-22 01:21:00,
2013-02-21 18:32:00,30.0,15.0,-100.00,NNW,328,7.0,14.0,54,0.00,,,0.00,47.000000,,2013-02-22 01:32:00,
2013-02-21 18:42:00,30.0,15.0,-100.00,NNW,328,7.0,14.0,54,0.00,,,0.00,47.000000,,2013-02-22 01:42:00,
2013-02-21 18:51:00,29.0,14.0,-100.00,NW,317,4.0,13.0,54,0.00,,,0.00,1.000000,,2013-02-22 01:51:00,
2013-02-21 19:11:00,29.0,14.0,-100.00,NW,317,4.0,13.0,54,0.00,,,0.00,1.000000,,2013-02-22 02:11:00,
2013-02-21 19:21:00,29.0,14.0,-100.00,NW,317,4.0,13.0,54,0.00,,,0.00,1.000000,,2013-02-22 02:21:00,
2013-02-21 19:31:00,29.0,14.0,-100.00,NW,317,4.0,13.0,54,0.00,,,0.00,1.000000,,2013-02-22 02:31:00,
2013-02-21 19:42:00,29.0,14.0,-100.00,NW,317,4.0,13.0,54,0.00,,,0.00,1.000000,,2013-02-22 02:42:00,
2013-02-21 19:51:00,28.0,14.0,-100.00,NW,325,6.0,12.0,55,0.00,,,0.00,0.000000,,2013-02-22 02:51:00,
2013-02-21 20:11:00,28.0,14.0,-100.00,NW,325,6.0,12.0,55,0.00,,,0.00,0.000000,,2013-02-22 03:11:00,
2013-02-21 20:21:00,28.0,14.0,-100.00,NW,325,6.0,12.0,55,0.00,,,0.00,0.000000,,2013-02-22 03:21:00,
2013-02-21 20:31:00,28.0,14.0,-100.00,NW,325,6.0,12.0,55,0.00,,,0.00,0.000000,,2013-02-22 03:31:00,
2013-02-21 20:41:00,28.0,14.0,-100.00,NW,325,6.0,12.0,55,0.00,,,0.00,0.000000,,2013-02-22 03:41:00,
2013-02-21 20:51:00,27.0,15.0,-100.00,NW,326,4.0,-999.0,59,0.00,,,0.00,,,2013-02-22 03:51:00,
2013-02-21 21:11:00,27.0,15.0,-100.00,NW,326,4.0,-999.0,59,0.00,,,0.00,,,2013-02-22 04:11:00,
2013-02-21 21:21:00,27.0,15.0,-100.00,NW,326,4.0,-999.0,59,0.00,,,0.00,,,2013-02-22 04:21:00,
2013-02-21 21:32:00,27.0,15.0,-100.00,NW,326,4.0,-999.0,59,0.00,,,0.00,,,2013-02-22 04:32:00,
2013-02-21 21:42:00,27.0,15.0,-100.00,NW,326,4.0,-999.0,59,0.00,,,0.00,,,2013-02-22 04:42:00,
2013-02-21 21:51:00,27.0,15.0,-100.00,NW,316,5.0,8.0,59,0.00,,,0.00,0.000000,,2013-02-22 04:51:00,
2013-02-21 22:12:00,27.0,15.0,-100.00,NW,316,5.0,8.0,59,0.00,,,0.00,0.000000,,2013-02-22 05:12:00,
2013-02-21 22:22:00,27.0,15.0,-100.00,NW,316,5.0,8.0,59,0.00,,,0.00,0.000000,,2013-02-22 05:22:00,
2013-02-21 22:32:00,27.0,15.0,-100.00,NW,316,5.0,8.0,59,0.00,,,0.00,0.000000,,2013-02-22 05:32:00,
2013-02-21 22:41:00,27.0,15.0,-100.00,NW,316,5.0,8.0,59,0.00,,,0.00,0.000000,,2013-02-22 05:41:00,
2013-02-21 22:51:00,25.0,14.0,-100.00,WNW,299,3.0,7.0,63,0.00,,,0.00,0.000000,,2013-02-22 05:51:00,
2013-02-21 23:11:00,25.0,14.0,-100.00,WNW,299,3.0,7.0,63,0.00,,,0.00,0.000000,,2013-02-22 06:11:00,
2013-02-21 23:21:00,25.0,14.0,-100.00,WNW,299,3.0,7.0,63,0.00,,,0.00,0.000000,,2013-02-22 06:21:00,
2013-02-21 23:31:00,25.0,14.0,-100.00,WNW,299,3.0,7.0,63,0.00,,,0.00,0.000000,,2013-02-22 06:31:00,
2013-02-21 23:42:00,25.0,14.0,-100.00,WNW,299,3.0,7.0,63,0.00,,,0.00,0.000000,,2013-02-22 06:42:00,
2013-02-21 23:51:00,23.0,14.0,-100.00,West,279,3.0,4.0,67,0.00,,,0.00,0.000000,,2013-02-22 06:51:00,